Location: Tamazert
(32.6352°N, 5.2072°W)
Time: 08:22:27
(UTC+00:00)

Tiros 1 despin weight - Pass Details

Date: 05 October 2022
Orbit: 590 x 637 km, 48.2° (Epoch: 28 November)

Event Time Altitude Azimuth Distance (km) Brightness Sun altitude
Rises 13:56:50 0° 217° (SW) 2,806 ? 44.6°
Reaches altitude 10° 13:59:08 10° 212° (SSW) 1,912 ? 44.3°
Maximum altitude 14:03:23 51° 136° (SE) 751 ? 43.7°
Drops below altitude 10° 14:07:42 10° 61° (ENE) 1,943 ? 43.1°
Sets 14:10:04 0° 56° (NE) 2,857 ? 42.8°
